Time,TemperatureF,DewpointF,PressureIn,WindDirection,WindDirectionDegrees,WindSpeedMPH,WindSpeedGustMPH,Humidity,HourlyPrecipIn,Conditions,Clouds,dailyrainin,SoftwareType,DateUTC
2013-04-19 00:02:00,12.5,10.0,30.43,WSW,242,24.0,-999.0,90,-99.99,,,0.00,weatherlink.com 1.10,2013-04-19 06:02:00,
2013-04-19 00:17:00,12.1,10.0,30.44,SW,216,22.0,-999.0,90,-99.99,,,0.00,weatherlink.com 1.10,2013-04-19 06:17:00,
2013-04-19 00:32:00,12.1,10.0,30.45,WSW,246,18.0,-999.0,90,-99.99,,,0.00,weatherlink.com 1.10,2013-04-19 06:32:00,
2013-04-19 00:47:00,11.9,10.0,30.45,SW,227,15.0,-999.0,90,-99.99,,,0.00,weatherlink.com 1.10,2013-04-19 06:47:00,
2013-04-19 01:03:00,11.9,10.0,30.45,SW,225,15.0,-999.0,90,-99.99,,,0.00,weatherlink.com 1.10,2013-04-19 07:03:00,
2013-04-19 01:18:00,12.0,10.0,30.45,SW,221,14.0,-999.0,90,-99.99,,,0.00,weatherlink.com 1.10,2013-04-19 07:18:00,
2013-04-19 01:33:00,12.0,10.0,30.43,SW,214,16.0,-999.0,90,-99.99,,,0.00,weatherlink.com 1.10,2013-04-19 07:33:00,
2013-04-19 01:48:00,12.2,10.0,30.43,SW,217,19.0,-999.0,90,-99.99,,,0.00,weatherlink.com 1.10,2013-04-19 07:48:00,
2013-04-19 02:03:00,12.4,10.0,30.41,WSW,240,22.0,-999.0,90,-99.99,,,0.00,weatherlink.com 1.10,2013-04-19 08:03:00,
2013-04-19 02:18:00,12.7,10.0,30.41,WSW,248,20.0,-999.0,90,-99.99,,,0.00,weatherlink.com 1.10,2013-04-19 08:18:00,
2013-04-19 02:34:00,12.7,10.0,30.41,SW,219,18.0,-999.0,90,-99.99,,,0.00,weatherlink.com 1.10,2013-04-19 08:34:00,
2013-04-19 02:49:00,12.9,11.0,30.41,WSW,239,13.0,-999.0,90,-99.99,,,0.00,weatherlink.com 1.10,2013-04-19 08:49:00,
2013-04-19 03:04:00,12.8,11.0,30.40,SW,221,15.0,-999.0,90,-99.99,,,0.00,weatherlink.com 1.10,2013-04-19 09:04:00,
2013-04-19 03:19:00,12.7,10.0,30.40,SW,215,14.0,-999.0,90,-99.99,,,0.00,weatherlink.com 1.10,2013-04-19 09:19:00,
2013-04-19 03:34:00,12.6,10.0,30.40,WSW,246,12.0,-999.0,90,-99.99,,,0.00,weatherlink.com 1.10,2013-04-19 09:34:00,
2013-04-19 03:50:00,13.0,11.0,30.39,SW,217,17.0,-999.0,90,-99.99,,,0.00,weatherlink.com 1.10,2013-04-19 09:50:00,
2013-04-19 04:05:00,13.1,11.0,30.39,WSW,253,15.0,-999.0,90,-99.99,,,0.00,weatherlink.com 1.10,2013-04-19 10:05:00,
2013-04-19 04:20:00,13.3,11.0,30.39,WSW,241,21.0,-999.0,90,-99.99,,,0.00,weatherlink.com 1.10,2013-04-19 10:20:00,
2013-04-19 04:35:00,13.4,11.0,30.38,WSW,237,17.0,-999.0,90,-99.99,,,0.00,weatherlink.com 1.10,2013-04-19 10:35:00,
2013-04-19 04:50:00,13.5,11.0,30.38,SW,222,19.0,-999.0,91,-99.99,,,0.00,weatherlink.com 1.10,2013-04-19 10:50:00,
2013-04-19 05:05:00,13.5,11.0,30.39,SW,227,19.0,-999.0,91,-99.99,,,0.00,weatherlink.com 1.10,2013-04-19 11:05:00,
2013-04-19 05:20:00,13.5,11.0,30.38,SSW,210,14.0,-999.0,91,-99.99,,,0.00,weatherlink.com 1.10,2013-04-19 11:20:00,
2013-04-19 05:36:00,13.4,11.0,30.37,SW,215,15.0,-999.0,90,-99.99,,,0.00,weatherlink.com 1.10,2013-04-19 11:36:00,
2013-04-19 05:51:00,13.3,11.0,30.36,SW,222,13.0,-999.0,90,-99.99,,,0.00,weatherlink.com 1.10,2013-04-19 11:51:00,
2013-04-19 06:06:00,13.1,11.0,30.36,SSW,212,11.0,-999.0,90,-99.99,,,0.00,weatherlink.com 1.10,2013-04-19 12:06:00,
2013-04-19 06:21:00,13.2,11.0,30.34,SW,232,17.0,-999.0,90,-99.99,,,0.00,weatherlink.com 1.10,2013-04-19 12:21:00,
2013-04-19 06:36:00,13.4,11.0,30.33,SSW,198,13.0,-999.0,90,-99.99,,,0.00,weatherlink.com 1.10,2013-04-19 12:36:00,
2013-04-19 06:51:00,13.1,11.0,30.31,SW,219,23.0,-999.0,90,-99.99,,,0.00,weatherlink.com 1.10,2013-04-19 12:51:00,
2013-04-19 07:07:00,13.5,11.0,30.33,SSW,194,15.0,-999.0,90,-99.99,,,0.00,weatherlink.com 1.10,2013-04-19 13:07:00,
2013-04-19 07:22:00,13.9,11.0,30.33,SSW,197,18.0,-999.0,89,-99.99,,,0.00,weatherlink.com 1.10,2013-04-19 13:22:00,
2013-04-19 07:37:00,14.0,11.0,30.33,SSW,208,18.0,-999.0,89,-99.99,,,0.00,weatherlink.com 1.10,2013-04-19 13:37:00,
2013-04-19 07:52:00,14.6,12.0,30.31,SW,215,23.0,-999.0,89,-99.99,,,0.00,weatherlink.com 1.10,2013-04-19 13:52:00,
2013-04-19 08:07:00,14.6,12.0,30.31,SW,218,21.0,-999.0,89,-99.99,,,0.00,weatherlink.com 1.10,2013-04-19 14:07:00,
2013-04-19 08:22:00,15.3,12.0,30.30,SSW,198,21.0,-999.0,88,-99.99,,,0.00,weatherlink.com 1.10,2013-04-19 14:22:00,
2013-04-19 08:38:00,15.1,12.0,30.31,SW,222,23.0,-999.0,88,-99.99,,,0.00,weatherlink.com 1.10,2013-04-19 14:38:00,
2013-04-19 08:53:00,15.5,13.0,30.30,SW,219,21.0,-999.0,88,-99.99,,,0.00,weatherlink.com 1.10,2013-04-19 14:53:00,
2013-04-19 09:08:00,16.9,14.0,30.29,SW,215,23.0,-999.0,87,-99.99,,,0.00,weatherlink.com 1.10,2013-04-19 15:08:00,
2013-04-19 09:24:00,18.0,14.0,30.30,SW,219,23.0,-999.0,85,-99.99,,,0.00,weatherlink.com 1.10,2013-04-19 15:24:00,
2013-04-19 09:38:00,18.9,15.0,30.29,SSW,211,16.0,-999.0,84,-99.99,,,0.00,weatherlink.com 1.10,2013-04-19 15:38:00,
2013-04-19 09:53:00,20.2,15.0,30.29,SW,227,24.0,-999.0,80,-99.99,,,0.00,weatherlink.com 1.10,2013-04-19 15:53:00,
2013-04-19 10:09:00,20.8,15.0,30.28,SW,218,21.0,-999.0,78,-99.99,,,0.00,weatherlink.com 1.10,2013-04-19 16:09:00,
2013-04-19 10:24:00,21.1,15.0,30.28,West,261,20.0,-999.0,78,-99.99,,,0.00,weatherlink.com 1.10,2013-04-19 16:24:00,
2013-04-19 10:39:00,21.0,15.0,30.25,SW,225,26.0,-999.0,79,-99.99,,,0.00,weatherlink.com 1.10,2013-04-19 16:39:00,
2013-04-19 10:54:00,21.8,16.0,30.25,SW,227,30.0,-999.0,78,-99.99,,,0.00,weatherlink.com 1.10,2013-04-19 16:54:00,
2013-04-19 11:09:00,23.0,17.0,30.25,WSW,252,12.0,-999.0,78,-99.99,,,0.00,weatherlink.com 1.10,2013-04-19 17:09:00,
2013-04-19 11:25:00,23.5,16.0,30.25,West,259,21.0,-999.0,74,-99.99,,,0.00,weatherlink.com 1.10,2013-04-19 17:25:00,
2013-04-19 11:40:00,23.8,17.0,30.25,WSW,240,11.0,-999.0,74,-99.99,,,0.00,weatherlink.com 1.10,2013-04-19 17:40:00,
2013-04-19 11:55:00,25.3,18.0,30.25,SW,224,15.0,-999.0,73,-99.99,,,0.00,weatherlink.com 1.10,2013-04-19 17:55:00,
2013-04-19 12:10:00,25.2,17.0,30.23,SSW,193,22.0,-999.0,71,-99.99,,,0.00,weatherlink.com 1.10,2013-04-19 18:10:00,
2013-04-19 12:25:00,25.5,17.0,30.24,WSW,240,27.0,-999.0,71,-99.99,,,0.00,weatherlink.com 1.10,2013-04-19 18:25:00,
2013-04-19 12:41:00,27.0,18.0,30.23,South,184,18.0,-999.0,69,-99.99,,,0.00,weatherlink.com 1.10,2013-04-19 18:41:00,
2013-04-19 12:56:00,25.7,18.0,30.19,South,183,20.0,-999.0,71,-99.99,,,0.00,weatherlink.com 1.10,2013-04-19 18:56:00,
2013-04-19 13:11:00,26.2,18.0,30.18,WSW,240,29.0,-999.0,71,-99.99,,,0.00,weatherlink.com 1.10,2013-04-19 19:11:00,
2013-04-19 13:26:00,26.5,19.0,30.18,SSW,213,13.0,-999.0,72,-99.99,,,0.00,weatherlink.com 1.10,2013-04-19 19:26:00,
2013-04-19 13:41:00,26.2,17.0,30.17,WSW,244,21.0,-999.0,68,-99.99,,,0.00,weatherlink.com 1.10,2013-04-19 19:41:00,
2013-04-19 13:56:00,26.7,18.0,30.19,SW,221,12.0,-999.0,69,-99.99,,,0.00,weatherlink.com 1.10,2013-04-19 19:56:00,
2013-04-19 14:12:00,26.1,18.0,30.19,SSW,202,21.0,-999.0,70,-99.99,,,0.00,weatherlink.com 1.10,2013-04-19 20:12:00,
2013-04-19 14:27:00,27.3,18.0,30.20,SSW,211,18.0,-999.0,67,-99.99,,,0.00,weatherlink.com 1.10,2013-04-19 20:27:00,
2013-04-19 14:42:00,27.2,17.0,30.20,South,182,19.0,-999.0,66,-99.99,,,0.00,weatherlink.com 1.10,2013-04-19 20:42:00,
2013-04-19 14:57:00,27.5,17.0,30.19,SSW,202,21.0,-999.0,66,-99.99,,,0.00,weatherlink.com 1.10,2013-04-19 20:57:00,
2013-04-19 15:12:00,27.4,18.0,30.18,SW,229,20.0,-999.0,67,-99.99,,,0.00,weatherlink.com 1.10,2013-04-19 21:12:00,
2013-04-19 15:27:00,27.6,18.0,30.16,WSW,239,18.0,-999.0,66,-99.99,,,0.00,weatherlink.com 1.10,2013-04-19 21:27:00,
2013-04-19 15:43:00,28.3,19.0,30.16,SSW,203,23.0,-999.0,68,-99.99,,,0.01,weatherlink.com 1.10,2013-04-19 21:43:00,
2013-04-19 15:58:00,28.5,19.0,30.15,SW,223,11.0,-999.0,68,-99.99,,,0.01,weatherlink.com 1.10,2013-04-19 21:58:00,
2013-04-19 16:13:00,26.9,18.0,30.13,WSW,242,23.0,-999.0,69,-99.99,,,0.01,weatherlink.com 1.10,2013-04-19 22:13:00,
2013-04-19 16:28:00,26.3,18.0,30.12,SW,216,25.0,-999.0,70,-99.99,,,0.01,weatherlink.com 1.10,2013-04-19 22:28:00,
2013-04-19 16:43:00,26.8,19.0,30.12,SSW,205,26.0,-999.0,71,-99.99,,,0.01,weatherlink.com 1.10,2013-04-19 22:43:00,
2013-04-19 16:58:00,26.0,18.0,30.11,SW,217,23.0,-999.0,71,-99.99,,,0.01,weatherlink.com 1.10,2013-04-19 22:58:00,
2013-04-19 17:14:00,25.7,18.0,30.13,SW,234,24.0,-999.0,73,-99.99,,,0.01,weatherlink.com 1.10,2013-04-19 23:14:00,
2013-04-19 17:29:00,25.6,18.0,30.15,SW,218,19.0,-999.0,74,-99.99,,,0.01,weatherlink.com 1.10,2013-04-19 23:29:00,
2013-04-19 17:44:00,26.0,18.0,30.13,SSW,192,15.0,-999.0,73,-99.99,,,0.01,weatherlink.com 1.10,2013-04-19 23:44:00,
2013-04-19 17:59:00,25.7,18.0,30.12,South,185,22.0,-999.0,74,-99.99,,,0.01,weatherlink.com 1.10,2013-04-19 23:59:00,
2013-04-19 18:14:00,25.7,18.0,30.12,South,191,18.0,-999.0,73,-99.99,,,0.01,weatherlink.com 1.10,2013-04-20 00:14:00,
2013-04-19 18:29:00,25.7,19.0,30.14,SW,219,23.0,-999.0,75,-99.99,,,0.00,weatherlink.com 1.10,2013-04-20 00:29:00,
2013-04-19 18:45:00,25.3,19.0,30.12,SSW,202,12.0,-999.0,76,-99.99,,,0.00,weatherlink.com 1.10,2013-04-20 00:45:00,
2013-04-19 19:00:00,24.6,18.0,30.11,SSW,209,19.0,-999.0,77,-99.99,,,0.00,weatherlink.com 1.10,2013-04-20 01:00:00,
2013-04-19 19:15:00,24.2,19.0,30.13,SW,232,15.0,-999.0,80,-99.99,,,0.00,weatherlink.com 1.10,2013-04-20 01:15:00,
2013-04-19 19:30:00,24.0,19.0,30.11,SSW,211,20.0,-999.0,81,-99.99,,,0.00,weatherlink.com 1.10,2013-04-20 01:30:00,
2013-04-19 19:45:00,23.8,19.0,30.09,SW,228,18.0,-999.0,81,-99.99,,,0.00,weatherlink.com 1.10,2013-04-20 01:45:00,
2013-04-19 20:00:00,23.6,19.0,30.09,SSW,200,26.0,-999.0,82,-99.99,,,0.00,weatherlink.com 1.10,2013-04-20 02:00:00,
2013-04-19 20:16:00,23.3,19.0,30.10,SSW,196,20.0,-999.0,83,-99.99,,,0.00,weatherlink.com 1.10,2013-04-20 02:16:00,
2013-04-19 20:31:00,23.0,19.0,30.11,SSW,207,20.0,-999.0,85,-99.99,,,0.00,weatherlink.com 1.10,2013-04-20 02:31:00,
2013-04-19 20:46:00,22.5,20.0,30.09,SSW,209,24.0,-999.0,89,-99.99,,,0.00,weatherlink.com 1.10,2013-04-20 02:46:00,
2013-04-19 21:01:00,22.3,20.0,30.07,SSW,202,28.0,-999.0,91,-99.99,,,0.00,weatherlink.com 1.10,2013-04-20 03:01:00,
2013-04-19 21:17:00,22.2,20.0,30.07,SSW,211,27.0,-999.0,92,-99.99,,,0.00,weatherlink.com 1.10,2013-04-20 03:17:00,
2013-04-19 21:31:00,22.1,20.0,30.09,SSW,200,24.0,-999.0,93,-99.99,,,0.00,weatherlink.com 1.10,2013-04-20 03:31:00,
2013-04-19 21:47:00,22.1,20.0,30.09,SSW,195,27.0,-999.0,93,-99.99,,,0.00,weatherlink.com 1.10,2013-04-20 03:47:00,
2013-04-19 22:02:00,22.2,21.0,30.09,SSW,193,25.0,-999.0,93,-99.99,,,0.00,weatherlink.com 1.10,2013-04-20 04:02:00,
2013-04-19 22:17:00,22.2,21.0,30.06,SSW,209,24.0,-999.0,93,-99.99,,,0.00,weatherlink.com 1.10,2013-04-20 04:17:00,
2013-04-19 22:32:00,22.2,21.0,30.05,SSW,213,23.0,-999.0,93,-99.99,,,0.00,weatherlink.com 1.10,2013-04-20 04:32:00,
2013-04-19 22:47:00,22.2,21.0,30.03,SW,225,26.0,-999.0,93,-99.99,,,0.00,weatherlink.com 1.10,2013-04-20 04:47:00,
2013-04-19 23:02:00,22.3,21.0,30.02,SSW,203,27.0,-999.0,93,-99.99,,,0.00,weatherlink.com 1.10,2013-04-20 05:02:00,
2013-04-19 23:18:00,22.3,21.0,30.00,SW,217,23.0,-999.0,93,-99.99,,,0.00,weatherlink.com 1.10,2013-04-20 05:18:00,
2013-04-19 23:33:00,22.4,21.0,30.02,SSW,212,20.0,-999.0,93,-99.99,,,0.00,weatherlink.com 1.10,2013-04-20 05:33:00,
2013-04-19 23:48:00,22.4,21.0,30.02,South,190,27.0,-999.0,93,-99.99,,,0.00,weatherlink.com 1.10,2013-04-20 05:48:00,